| time (UTC) | temp F | wind direction | speed MPH | gust MPH | rain 1hr in | rain 24hr in | rain mn in | humidity % | barometer mb |
| 20260905000108 | 91 | 248 | 7.0 | 15.0 | 0.00 | 0.00 | 0.00 | 32 | 1012.5 |
| 20260904234610 | 93 | 222 | 4.0 | 11.0 | 0.00 | 0.00 | 0.00 | 30 | 1012.4 |
| 20260904233103 | 95 | 211 | 3.0 | 10.0 | 0.00 | 0.00 | 0.00 | 30 | 1012.2 |
| 20260904231603 | 96 | 215 | 2.0 | 8.0 | 0.00 | 0.00 | 0.00 | 28 | 1011.9 |
| 20260904230113 | 96 | 116 | 1.0 | 8.0 | 0.00 | 0.00 | 0.00 | 28 | 1011.8 |
| 20260904224602 | 97 | 131 | 2.0 | 10.0 | 0.00 | 0.00 | 0.00 | 27 | 1011.9 |
| 20260904223107 | 98 | 165 | 4.0 | 10.0 | 0.00 | 0.00 | 0.00 | 27 | 1011.8 |
| 20260904221609 | 99 | 170 | 3.0 | 10.0 | 0.00 | 0.00 | 0.00 | 27 | 1011.7 |
| 20260904220122 | 99 | 147 | 5.0 | 13.0 | 0.00 | 0.00 | 0.00 | 26 | 1011.7 |
| 20260904214606 | 101 | 89 | 3.0 | 13.0 | 0.00 | 0.00 | 0.00 | 26 | 1011.6 |
| 20260904213103 | 101 | 176 | 3.0 | 15.0 | 0.00 | 0.00 | 0.00 | 25 | 1011.6 |
| 20260904211607 | 102 | 160 | 4.0 | 15.0 | 0.00 | 0.00 | 0.00 | 26 | 1011.7 |
| 20260904204606 | 102 | 180 | 5.0 | 14.0 | 0.00 | 0.00 | 0.00 | 26 | 1012.0 |
| 20260904203108 | 102 | 188 | 8.0 | 19.0 | 0.00 | 0.00 | 0.00 | 26 | 1012.1 |
| 20260904201606 | 102 | 212 | 4.0 | 10.0 | 0.00 | 0.00 | 0.00 | 26 | 1012.3 |
| 20260904200111 | 102 | 178 | 3.0 | 10.0 | 0.00 | 0.00 | 0.00 | 26 | 1012.4 |
| 20260904194602 | 101 | 85 | 5.0 | 13.0 | 0.00 | 0.00 | 0.00 | 28 | 1012.4 |
| 20260904193104 | 100 | 184 | 7.0 | 17.0 | 0.00 | 0.00 | 0.00 | 28 | 1012.6 |
| 20260904191601 | 99 | 185 | 5.0 | 15.0 | 0.00 | 0.00 | 0.00 | 27 | 1012.8 |
| 20260904190107 | 99 | 189 | 7.0 | 16.0 | 0.00 | 0.00 | 0.00 | 27 | 1013.0 |
| 20260904184612 | 98 | 193 | 6.0 | 15.0 | 0.00 | 0.00 | 0.00 | 29 | 1013.1 |
| 20260904183104 | 97 | 233 | 7.0 | 17.0 | 0.00 | 0.00 | 0.00 | 31 | 1013.2 |
| 20260904181601 | 96 | 216 | 5.0 | 15.0 | 0.00 | 0.00 | 0.00 | 32 | 1013.4 |
| 20260904180114 | 95 | 220 | 7.0 | 14.0 | 0.00 | 0.00 | 0.00 | 35 | 1013.6 |
| 20260904174622 | 93 | 156 | 7.0 | 14.0 | 0.00 | 0.00 | 0.00 | 38 | 1013.7 |
| 20260904173109 | 92 | 168 | 6.0 | 13.0 | 0.00 | 0.00 | 0.00 | 38 | 1013.8 |
| 20260904171606 | 91 | 190 | 8.0 | 12.0 | 0.00 | 0.00 | 0.00 | 38 | 1013.9 |
| 20260904170105 | 90 | 181 | 6.0 | 11.0 | 0.00 | 0.00 | 0.00 | 41 | 1013.8 |
| 20260904164606 | 89 | 195 | 6.0 | 14.0 | 0.00 | 0.00 | 0.00 | 43 | 1013.8 |
| 20260904163107 | 88 | 200 | 8.0 | 16.0 | 0.00 | 0.00 | 0.00 | 46 | 1013.9 |
| 20260904161609 | 87 | 199 | 7.0 | 17.0 | 0.00 | 0.00 | 0.00 | 48 | 1014.0 |
| 20260904160110 | 85 | 208 | 7.0 | 17.0 | 0.00 | 0.00 | 0.00 | 52 | 1014.0 |
| 20260904154604 | 84 | 202 | 8.0 | 17.0 | 0.00 | 0.00 | 0.00 | 52 | 1014.0 |
| 20260904153131 | 83 | 199 | 7.0 | 15.0 | 0.00 | 0.00 | 0.00 | 56 | 1014.1 |
| 20260904151609 | 82 | 242 | 7.0 | 17.0 | 0.00 | 0.00 | 0.00 | 61 | 1014.1 |
| 20260904150106 | 80 | 224 | 8.0 | 14.0 | 0.00 | 0.00 | 0.00 | 63 | 1014.2 |
| 20260904144603 | 79 | 190 | 8.0 | 19.0 | 0.00 | 0.00 | 0.00 | 67 | 1014.2 |
| 20260904143103 | 78 | 195 | 7.0 | 15.0 | 0.00 | 0.00 | 0.00 | 69 | 1014.2 |
| 20260904141603 | 77 | 201 | 5.0 | 14.0 | 0.00 | 0.00 | 0.00 | 72 | 1014.3 |
| 20260904140105 | 75 | 202 | 6.0 | 12.0 | 0.00 | 0.00 | 0.00 | 74 | 1014.4 |
| 20260904134610 | 74 | 162 | 5.0 | 11.0 | 0.00 | 0.00 | 0.00 | 76 | 1014.3 |
| 20260904133108 | 73 | 139 | 3.0 | 8.0 | 0.00 | 0.00 | 0.00 | 77 | 1014.2 |
| 20260904131605 | 72 | 199 | 3.0 | 8.0 | 0.00 | 0.00 | 0.00 | 77 | 1014.2 |
| 20260904130104 | 72 | 157 | 3.0 | 8.0 | 0.00 | 0.00 | 0.00 | 77 | 1013.8 |
| 20260904124600 | 72 | 172 | 3.0 | 9.0 | 0.00 | 0.00 | 0.00 | 76 | 1013.7 |
| 20260904123102 | 72 | 196 | 4.0 | 9.0 | 0.00 | 0.00 | 0.00 | 75 | 1013.6 |
| 20260904121601 | 72 | 166 | 3.0 | 10.0 | 0.00 | 0.00 | 0.00 | 74 | 1013.5 |
| 20260904120111 | 72 | 198 | 4.0 | 9.0 | 0.00 | 0.00 | 0.00 | 73 | 1013.4 |
| 20260904114600 | 73 | 150 | 2.0 | 10.0 | 0.00 | 0.00 | 0.00 | 72 | 1013.3 |
| 20260904113108 | 73 | 200 | 2.0 | 8.0 | 0.00 | 0.00 | 0.00 | 71 | 1013.2 |
| 20260904111558 | 73 | 144 | 3.0 | 9.0 | 0.00 | 0.00 | 0.00 | 70 | 1013.3 |
| 20260904110104 | 73 | 203 | 2.0 | 8.0 | 0.00 | 0.00 | 0.00 | 70 | 1013.4 |
| 20260904104602 | 73 | 163 | 1.0 | 6.0 | 0.00 | 0.00 | 0.00 | 69 | 1013.3 |
| 20260904103104 | 73 | 151 | 2.0 | 6.0 | 0.00 | 0.00 | 0.00 | 67 | 1013.3 |
| 20260904101608 | 74 | 146 | 2.0 | 8.0 | 0.00 | 0.00 | 0.00 | 66 | 1013.0 |
| 20260904100103 | 74 | 174 | 2.0 | 6.0 | 0.00 | 0.00 | 0.00 | 64 | 1013.0 |
| 20260904094611 | 75 | 130 | 2.0 | 7.0 | 0.00 | 0.00 | 0.00 | 63 | 1013.0 |
| 20260904093122 | 75 | 174 | 2.0 | 8.0 | 0.00 | 0.00 | 0.00 | 62 | 1012.9 |
| 20260904091617 | 76 | 192 | 1.0 | 7.0 | 0.00 | 0.00 | 0.00 | 60 | 1012.9 |
| 20260904090106 | 77 | 186 | 1.0 | 7.0 | 0.00 | 0.00 | 0.00 | 59 | 1013.0 |
| 20260904084601 | 77 | 174 | 3.0 | 8.0 | 0.00 | 0.00 | 0.00 | 57 | 1013.1 |
| 20260904083110 | 78 | 147 | 1.0 | 8.0 | 0.00 | 0.00 | 0.00 | 56 | 1013.0 |
| 20260904081620 | 78 | 141 | 3.0 | 9.0 | 0.00 | 0.00 | 0.00 | 55 | 1013.4 |
| 20260904080120 | 78 | 171 | 3.0 | 7.0 | 0.00 | 0.00 | 0.00 | 54 | 1013.3 |
| 20260904074614 | 78 | 181 | 2.0 | 7.0 | 0.00 | 0.00 | 0.00 | 52 | 1013.0 |
| 20260904073107 | 79 | 145 | 1.0 | 7.0 | 0.00 | 0.00 | 0.00 | 52 | 1013.0 |
| 20260904071601 | 79 | 0 | 1.0 | 7.0 | 0.00 | 0.00 | 0.00 | 51 | 1013.0 |
| 20260904070104 | 78 | 179 | 3.0 | 7.0 | 0.00 | 0.00 | 0.00 | 51 | 1013.2 |
| 20260904064601 | 78 | 202 | 3.0 | 7.0 | 0.00 | 0.00 | 0.00 | 52 | 1013.0 |
| 20260904063103 | 78 | 151 | 2.0 | 9.0 | 0.00 | 0.00 | 0.00 | 52 | 1013.0 |
| 20260904061605 | 79 | 170 | 3.0 | 7.0 | 0.00 | 0.00 | 0.00 | 50 | 1012.9 |
| 20260904054605 | 80 | 176 | 2.0 | 8.0 | 0.00 | 0.00 | 0.00 | 47 | 1012.6 |
| 20260904053139 | 80 | 157 | 2.0 | 7.0 | 0.00 | 0.00 | 0.00 | 46 | 1012.5 |
| 20260904051606 | 81 | 195 | 1.0 | 10.0 | 0.00 | 0.00 | 0.00 | 45 | 1012.2 |
| 20260904050115 | 81 | 77 | 1.0 | 6.0 | 0.00 | 0.00 | 0.00 | 44 | 1012.1 |
| 20260904044559 | 82 | 187 | 5.0 | 13.0 | 0.00 | 0.00 | 0.00 | 43 | 1012.0 |
| 20260904043103 | 82 | 200 | 2.0 | 6.0 | 0.00 | 0.00 | 0.00 | 42 | 1012.0 |
| 20260904041606 | 83 | 170 | 2.0 | 5.0 | 0.00 | 0.00 | 0.00 | 41 | 1011.9 |
| 20260904040105 | 83 | 172 | 0.0 | 4.0 | 0.00 | 0.00 | 0.00 | 40 | 1011.9 |
| 20260904034605 | 84 | 171 | 1.0 | 4.0 | 0.00 | 0.00 | 0.00 | 38 | 1011.8 |
| 20260904033118 | 85 | 170 | 0.0 | 5.0 | 0.00 | 0.00 | 0.00 | 37 | 1011.7 |
| 20260904031604 | 86 | 177 | 1.0 | 8.0 | 0.00 | 0.00 | 0.00 | 35 | 1011.6 |
| 20260904024605 | 88 | 154 | 4.0 | 9.0 | 0.00 | 0.00 | 0.00 | 30 | 1011.3 |
| 20260904023059 | 89 | 138 | 1.0 | 7.0 | 0.00 | 0.00 | 0.00 | 28 | 1011.1 |
| 20260904021606 | 90 | 152 | 1.0 | 9.0 | 0.00 | 0.00 | 0.00 | 28 | 1010.8 |
| 20260904020131 | 91 | 121 | 1.0 | 6.0 | 0.00 | 0.00 | 0.00 | 26 | 1010.7 |
| 20260904014650 | 92 | 119 | 0.0 | 2.0 | 0.00 | 0.00 | 0.00 | 24 | 1010.5 |
| 20260904013111 | 93 | 0 | 0.0 | 3.0 | 0.00 | 0.00 | 0.00 | 23 | 1010.3 |
| 20260904011608 | 94 | 0 | 0.0 | 2.0 | 0.00 | 0.00 | 0.00 | 21 | 1010.2 |
| 20260904010105 | 95 | 0 | 0.0 | 3.0 | 0.00 | 0.00 | 0.00 | 21 | 1010.1 |
| 20260904004603 | 96 | 133 | 0.0 | 3.0 | 0.00 | 0.00 | 0.00 | 21 | 1010.1 |
| 20260904001603 | 99 | 140 | 1.0 | 9.0 | 0.00 | 0.00 | 0.00 | 19 | 1010.1 |